Location: Mahannah Oil Field
(37.4664°N, 96.6003°W)
Time: 16:20:01
(UTC+00:00)

Vanguard 2 Rocket - Pass Details

Date: 20 June 2021
Orbit: 554 x 3325 km, 32.9° (Epoch: 24 July)

Event Time Altitude Azimuth Distance (km) Brightness Sun altitude
Rises 01:59:20 0° 245° (WSW) 7,246 12.0 -2.3°
Reaches altitude 10° 02:04:13 10° 243° (WSW) 6,278 11.6 -3.1°
Maximum altitude 02:24:11 68° 167° (SSE) 3,042 9.4 -6.4°
Drops below altitude 10° 02:38:03 10° 88° (E) 4,569 10.0 -8.6°
Sets 02:40:59 0° 86° (E) 5,262 10.4 -9.1°
